Theta_e
294 295 297 299 302 304 304 303 302 302 303 302 301 298 295 293 293 294 294 294 295 296 295 294 295 293 292 291 292 296 296 295 294 295 296 301 299 296 298 299 298 299 297
291 294 295 298 300 302 303 304 304 303 304 301 298 294 291 290 290 290 290 291 291 291 291 290 289 289 289 288 288 288 290 289 290 289 293 292 296 293 296 296 292 293 292
291 292 294 295 296 297 300 301 300 298 296 294 293 292 291 289 287 287 287 288 289 289 289 289 288 288 287 286 286 286 286 285 286 286 288 286 284 287 292 288 287 287 287
292 292 293 293 294 293 294 295 296 295 294 293 292 291 289 286 286 285 286 287 287 287 288 287 287 286 286 285 285 286 285 284 282 285 287 284 282 281 282 283 284 286 286
292 291 291 292 290 291 291 291 291 291 292 292 291 289 286 286 286 285 285 285 285 286 286 286 285 285 285 284 284 283 283 283 282 282 282 282 281 281 278 276 279 282 283
291 290 290 289 288 288 288 288 288 289 290 289 289 287 286 285 285 284 283 283 283 284 284 285 284 283 283 283 283 283 282 282 282 281 281 281 279 278 278 276 278 278 280
290 288 286 286 286 286 287 287 286 286 287 287 287 287 286 285 284 284 283 282 282 282 282 282 282 282 282 282 282 281 280 281 280 280 280 281 281 281 280 278 277 276 279
290 287 286 286 286 286 285 285 285 285 286 286 286 286 286 285 284 284 284 283 282 282 282 281 281 281 281 281 281 280 280 280 279 279 279 280 280 281 280 279 277 275 276
289 287 287 286 285 285 285 285 284 285 285 285 284 284 284 284 283 284 283 282 282 283 281 281 280 280 280 280 280 279 278 278 279 278 278 279 279 280 279 279 279 276 273
289 288 287 286 286 285 285 285 285 284 284 284 284 284 284 284 283 283 282 281 280 281 280 280 280 279 279 278 278 278 278 277 277 278 277 277 278 277 277 277 278 277 275
289 288 287 287 286 286 285 285 284 284 284 284 284 283 283 283 283 282 281 281 280 280 279 279 279 278 278 277 277 277 277 276 276 276 276 276 277 275 275 275 275 275 274
290 289 288 287 285 285 285 284 284 284 283 284 283 283 283 282 281 281 281 280 279 279 278 278 278 278 277 277 276 276 276 276 276 276 276 275 278 275 274 274 273 273 273
290 289 288 286 285 285 285 284 284 284 284 283 283 282 281 281 281 280 280 280 279 278 278 277 277 277 277 276 276 276 276 276 276 276 276 275 275 274 274 273 272 273 274
290 289 288 287 286 285 285 284 284 284 283 283 282 281 281 281 280 280 279 279 278 277 277 277 276 276 276 276 276 276 276 276 276 277 276 275 275 274 273 273 273 274 273
290 289 288 287 286 285 285 284 284 284 284 283 282 282 281 281 281 280 279 278 278 277 277 276 275 275 275 276 275 276 275 275 275 275 276 275 275 277 277 275 274 273 272
290 290 290 288 287 285 285 285 284 283 284 282 282 281 282 281 280 279 278 277 277 276 275 275 274 273 275 278 277 277 275 276 275 274 275 274 275 275 277 278 278 277 273
291 290 290 289 289 287 286 285 284 283 282 281 280 281 282 281 279 278 277 276 275 275 274 273 273 273 273 278 278 277 276 275 274 274 275 274 275 274 274 275 277 277 278
291 291 290 290 290 289 287 286 284 282 282 282 281 281 281 279 277 277 276 275 274 273 273 272 273 272 273 278 278 277 275 274 274 274 274 274 273 274 274 274 274 275 276
292 292 292 292 291 289 288 286 284 282 282 281 281 281 280 278 277 276 274 274 273 272 271 272 270 270 270 277 277 276 273 273 273 275 274 274 273 276 278 276 273 273 273
291 290 289 288 288 286 286 284 282 282 281 281 282 281 280 279 277 276 273 272 271 273 273 272 270 269 267 275 277 276 273 267 272 273 275 277 276 278 279 276 272 270 270
286 285 285 285 284 283 282 281 280 281 281 279 279 279 279 279 277 273 271 272 269 272 269 269 268 268 268 268 275 277 274 271 270 271 272 274 277 278 279 278 272 270 274
282 282 282 282 282 281 281 279 280 280 278 278 277 276 275 275 274 272 268 269 269 266 265 264 265 268 269 271 273 276 277 276 271 270 273 273 277 278 277 276 275 275 272
280 280 280 279 279 278 279 279 278 277 276 275 273 269 270 271 271 270 268 266 266 267 266 267 266 267 270 269 275 276 276 277 275 274 274 277 277 276 273 272 273 270 264
278 276 277 276 275 274 276 274 276 274 273 270 270 269 270 268 268 269 268 268 266 266 266 267 267 265 266 267 269 270 270 273 274 274 271 271 274 273 271 267 268 267 266
276 276 276 275 275 273 272 271 273 273 272 271 269 269 268 267 266 267 268 268 266 268 263 264 264 263 264 267 271 270 266 267 270 271 265 261 261 261 262 262 263 264 264
275 274 273 272 271 271 271 270 271 271 271 269 269 268 267 265 266 265 264 274 274 275 276 277 269 263 272 274 276 277 277 278 278 267 257 257 259 261 261 260 261 263 263
Wind_Speed
8 7 6 6 6 8 7 8 8 7 5 4 6 6 6 6 6 6 8 8 7 9 8 7 8 7 8 7 8 4 6 8 10 4 5 5 7 9 5 6 6 8 8
8 7 7 7 6 6 7 7 9 8 4 4 4 5 4 5 6 5 7 9 10 8 9 8 7 7 7 8 8 8 4 4 8 3 2 5 4 8 6 6 8 8 5
11 9 8 7 7 6 6 6 6 7 7 8 8 8 6 5 5 5 5 7 9 9 8 8 7 7 5 6 6 6 7 5 5 10 4 4 2 4 3 6 7 8 5
10 10 9 9 8 7 7 7 7 7 7 8 8 7 6 7 4 4 5 6 7 8 7 8 7 7 5 8 6 6 6 5 5 4 6 6 2 3 5 5 5 11 8
14 13 10 9 9 7 7 7 7 7 7 8 9 9 10 6 5 5 7 7 7 8 7 7 7 8 6 6 7 7 7 5 4 4 3 3 3 4 2 4 8 5 5
12 11 8 9 7 7 7 7 7 6 7 8 9 10 11 9 7 5 5 4 4 5 6 7 7 6 6 6 5 6 7 5 5 4 5 3 2 3 2 3 6 7 5
14 13 12 10 9 8 8 7 7 7 7 8 8 9 9 9 9 7 5 6 4 4 6 6 6 5 5 6 6 6 6 5 4 5 4 3 3 2 2 2 3 4 4
15 14 13 11 11 9 8 8 9 8 8 8 9 8 9 5 5 6 5 5 4 5 6 6 6 6 6 5 5 4 4 4 4 6 5 3 3 3 2 2 4 7 2
15 15 13 10 10 10 9 9 9 7 8 8 7 7 7 8 7 8 7 5 6 5 6 6 6 6 6 6 6 5 4 4 4 4 4 2 2 3 4 2 1 1 6
16 15 14 12 10 8 7 8 8 9 8 8 7 7 7 8 8 7 7 7 6 6 6 6 6 6 5 5 5 4 4 4 3 2 4 3 2 3 3 3 3 3 3
18 16 14 13 12 10 9 9 10 10 9 8 7 8 7 7 7 7 7 7 7 7 7 6 6 4 4 4 4 3 3 2 2 3 3 4 4 3 3 3 3 3 2
17 16 15 14 13 13 11 10 9 10 8 7 7 8 8 8 8 7 7 7 7 7 7 6 5 4 3 3 2 1 1 1 2 3 4 4 3 5 4 3 4 4 3
16 15 14 15 15 14 13 12 10 10 9 8 9 7 8 8 8 8 8 7 7 7 6 5 5 4 3 2 2 3 2 3 3 3 4 4 5 4 3 3 4 4 7
17 15 15 16 15 14 14 13 12 11 11 10 10 10 10 9 8 8 8 7 7 7 6 5 5 3 3 4 4 2 3 3 3 4 4 5 5 5 3 5 5 7 6
18 19 18 16 15 14 14 13 12 13 13 11 10 11 8 8 8 8 8 7 7 6 6 6 4 4 4 3 4 1 3 4 5 5 5 5 5 11 10 6 4 6 6
19 18 16 14 16 16 15 14 14 12 13 12 12 8 9 9 8 8 8 7 7 6 6 5 5 5 3 8 7 4 3 5 6 6 5 4 5 8 12 14 16 13 10
15 15 15 15 13 15 15 16 14 10 12 11 8 9 10 10 9 9 9 8 7 6 6 6 6 6 6 10 9 8 5 5 5 7 6 6 5 5 6 12 17 17 19
10 10 9 8 9 9 12 11 10 13 12 11 9 9 10 10 9 10 10 7 6 8 6 6 6 6 6 11 10 10 4 5 7 7 7 7 8 7 8 10 11 9 10
11 11 10 10 10 10 12 12 10 11 11 10 11 12 11 11 11 11 10 7 7 5 5 4 7 7 5 11 11 9 3 7 8 7 7 8 9 12 17 11 6 9 10
8 9 9 7 10 7 9 10 9 10 11 11 12 10 10 11 12 11 10 6 5 7 6 6 6 7 6 13 13 10 3 5 6 7 9 13 12 16 16 8 5 9 11
9 8 9 9 8 8 9 9 8 11 10 7 7 9 10 11 9 8 5 7 6 6 6 6 5 6 6 8 14 14 7 6 6 6 5 5 14 17 17 14 5 8 14
8 7 8 7 7 8 9 9 11 7 7 8 8 8 7 6 7 9 5 7 7 6 6 5 4 5 7 12 14 17 17 13 8 6 6 6 17 17 13 14 17 18 11
8 5 7 8 6 6 7 9 5 7 7 8 7 6 6 6 6 8 8 5 6 6 6 7 6 6 6 6 15 15 16 17 11 5 10 19 11 11 9 13 15 8 2
7 5 8 7 6 4 5 4 7 7 7 7 6 6 7 6 5 5 6 6 7 6 5 6 6 2 3 4 5 5 6 12 11 12 6 6 10 10 9 3 7 4 4
4 5 7 6 5 5 4 4 6 7 7 6 6 6 5 6 5 5 6 6 3 6 4 4 4 4 4 5 10 9 6 7 10 10 2 1 1 2 2 3 3 3 3
4 4 3 4 3 4 3 3 5 6 7 6 5 5 5 4 4 4 1 10 11 13 14 13 7 3 10 14 16 18 19 20 20 2 3 3 3 3 3 3 4 3 5
Wind_Direction
135 145 136 143 132 124 122 123 123 135 130 128 106 87 86 72 60 55 47 46 49 52 52 52 62 51 58 42 34 30 46 22 358 16 346 38 70 24 20 45 40 45 28
148 158 162 156 150 130 134 145 154 166 125 80 78 88 96 76 75 60 57 53 50 53 67 60 51 53 55 44 37 38 36 29 27 24 343 15 335 24 20 50 25 24 14
161 166 159 156 133 133 128 112 99 93 93 97 96 98 90 77 61 45 53 45 49 48 53 58 62 59 51 52 35 35 39 41 8 37 77 32 335 330 340 27 27 15 4
153 157 166 152 144 131 115 111 114 117 122 128 129 127 110 106 85 91 78 67 50 49 50 54 55 61 51 49 39 32 41 46 34 11 19 47 43 360 329 346 343 6 347
154 163 164 148 132 139 138 133 125 127 128 121 112 113 113 114 117 108 102 88 70 56 53 56 56 56 53 53 50 35 29 34 57 56 4 16 352 59 332 302 326 330 343
153 152 136 127 131 130 135 136 130 124 117 114 117 120 125 129 123 121 105 99 91 83 68 64 59 59 60 62 58 59 49 44 49 35 39 49 38 353 18 313 315 306 312
158 151 151 156 151 160 154 143 139 133 123 111 112 122 127 124 126 131 122 118 95 76 72 74 69 62 62 59 66 62 55 46 52 43 38 27 19 9 341 303 303 308 304
166 161 166 164 161 157 153 148 149 139 125 118 120 122 122 128 123 124 118 106 111 108 99 88 84 80 68 62 74 67 61 52 50 40 36 14 349 9 359 330 331 324 286
169 165 167 166 162 163 166 159 144 136 131 130 127 127 121 114 120 112 108 116 119 114 112 113 103 89 79 66 73 69 59 42 46 27 30 -0 347 6 330 340 321 280 315
170 171 174 170 162 160 155 149 148 149 146 140 138 134 126 122 125 118 126 130 129 126 123 110 105 89 81 66 73 69 54 46 22 25 17 356 326 341 336 346 322 304 270
179 177 176 170 161 159 162 161 159 154 151 148 144 137 137 133 131 134 136 143 135 134 126 123 112 112 104 88 79 91 85 44 355 350 1 323 321 326 322 320 300 302 303
182 179 173 167 168 169 168 171 161 157 158 148 142 144 143 145 144 146 148 144 147 136 132 122 128 135 129 119 121 123 93 303 321 325 307 305 319 305 299 309 312 300 290
180 179 176 178 175 175 174 172 168 161 158 153 151 154 157 157 160 153 150 148 146 134 129 148 158 159 169 190 216 194 240 264 263 272 282 290 294 292 304 329 308 291 298
181 182 184 185 183 180 175 173 172 164 166 163 166 169 169 166 161 151 150 152 152 147 155 167 162 172 205 217 226 216 255 270 276 282 278 274 274 284 320 302 282 291 295
184 188 188 187 183 179 176 176 175 169 171 171 172 179 163 161 153 153 156 160 151 157 166 160 166 196 215 226 200 222 271 281 279 273 270 264 264 293 292 287 270 279 280
190 191 188 181 185 184 179 177 178 171 171 176 183 166 166 163 161 152 155 155 156 156 153 168 183 213 226 233 217 229 249 270 276 277 270 277 278 279 291 296 295 295 293
192 189 188 187 186 184 177 181 176 158 172 176 170 169 166 167 162 156 152 167 173 166 174 188 194 210 221 237 232 239 243 263 268 272 278 280 276 283 279 285 288 288 286
166 178 179 166 170 164 174 162 161 167 170 177 171 164 167 166 156 160 173 168 166 177 177 188 200 210 220 232 234 242 241 258 264 263 265 264 270 264 276 276 272 281 289
179 171 163 166 170 165 166 161 160 155 169 176 175 180 173 165 168 179 179 179 166 174 176 182 192 202 219 235 237 241 234 260 263 266 262 253 258 264 280 285 302 299 301
151 135 149 143 149 154 138 138 149 160 181 179 186 176 170 173 183 184 177 165 169 184 182 193 196 208 215 233 241 241 216 242 258 258 260 257 260 273 286 296 292 310 308
120 119 122 135 141 131 130 142 148 188 188 149 152 166 178 185 182 158 155 166 161 160 181 196 200 208 203 226 246 245 230 233 250 254 258 257 276 283 292 303 323 290 297
127 129 125 134 140 138 140 152 187 179 151 155 162 166 163 160 157 160 147 158 160 171 184 193 224 225 222 224 243 246 243 243 246 245 258 267 278 283 293 314 308 304 336
138 125 132 133 143 155 157 169 194 153 149 144 151 141 131 140 149 156 159 149 165 184 195 207 225 228 220 215 240 238 246 253 262 257 258 270 287 302 319 304 299 330 307
139 136 134 147 160 169 167 157 150 136 133 134 139 138 147 148 151 160 170 178 186 196 205 209 226 208 205 194 201 220 244 264 266 270 276 244 266 295 297 317 294 287 277
137 150 152 160 188 165 174 149 139 135 141 140 151 159 158 168 173 189 183 193 205 189 187 207 190 187 216 217 226 222 219 223 238 242 131 124 211 239 253 268 265 269 273
137 130 153 136 177 149 145 135 141 148 144 152 167 169 159 164 156 162 263 236 221 230 242 238 205 233 244 251 253 258 259 256 248 188 160 208 201 222 225 251 267 259 271